ORBCOMM FM34 [-]

Last updated on Fri Dec 29 2023 00:02:54 GMT+0000 (Coordinated Universal Time)

1 25986U 99065G 23362.13697560 .00001683 00000+0 63972-3 0 9999 2 25986 45.0388 112.0695 0004724 184.6670 175.4134 14.34614307257757
UTC large
Height (km)
Speed (km/s)
/
Latitude / Longitude
Inclination (degrees)
Orbital Period (minutes)
Azimuth
Elevation
Range (km)
Doppler Factor

Next 0 passes for location: London (51.5072 / 0.1276)

Sorry there are no passes over London.
ORBCOMM FM34 [-]